GFSNGP_sfc_wetblb_021.txt.gz
Wetbulb
31.09 32.07 32.56 32.48 32.79 33.76 32.46 33.36 29.74 32.44 35.05 38.74 40.28 43.71 46.58 53.35 56.07 57.09 57.43 58.19 58.73 58.72 59.03 58.97 58.30 58.95 59.03 59.10 59.54 59.36 59.64 59.08 59.14 59.46 59.93 58.10 57.93 57.61 57.07 57.38 57.05 61.16 60.77 58.92
29.66 33.13 33.41 31.15 33.74 34.03 35.08 35.11 34.85 34.96 34.50 43.31 44.99 48.16 52.98 54.49 56.59 56.64 57.08 58.29 58.80 59.17 59.43 58.88 58.79 58.77 58.86 58.47 58.98 60.21 60.43 59.45 59.77 60.24 59.33 58.73 57.78 56.94 57.28 56.83 59.54 61.24 59.27 57.80
25.00 31.74 31.32 29.99 33.14 33.83 35.40 36.67 36.17 32.94 39.49 44.01 44.15 48.43 52.52 53.92 56.56 56.91 57.46 58.16 58.56 59.20 59.20 59.12 59.26 58.96 57.15 57.28 59.01 60.89 60.84 60.56 61.54 59.91 59.18 59.95 58.67 57.70 57.21 57.94 59.57 59.89 56.80 56.04
26.68 29.97 21.63 33.00 41.86 39.76 36.78 37.54 38.90 40.61 41.70 46.46 47.70 50.18 53.70 54.36 54.26 56.71 57.59 58.44 58.94 59.32 59.34 59.06 58.10 56.81 56.65 56.72 59.17 61.20 60.78 60.15 60.55 59.71 59.07 60.19 59.84 56.79 56.66 59.86 59.80 57.89 55.07 54.58
26.12 25.84 31.48 34.55 39.04 37.98 37.38 36.22 39.85 44.23 47.63 50.24 51.76 52.36 52.30 56.48 56.68 56.24 58.24 58.67 59.41 60.30 59.70 58.18 56.62 56.26 56.18 57.14 58.77 59.52 59.12 59.31 60.17 59.08 57.39 58.12 57.07 56.78 56.54 56.54 56.33 55.21 54.91 54.18
29.57 25.30 24.25 34.63 38.34 41.81 42.13 34.18 48.91 48.22 47.16 49.63 50.13 44.80 48.69 55.10 56.44 55.78 57.35 58.49 59.49 60.09 59.14 57.23 56.39 55.00 55.84 56.82 57.51 58.07 59.11 59.85 59.90 58.60 58.09 57.86 56.80 56.86 56.36 56.38 56.48 57.19 55.51 55.09
28.02 27.08 31.59 37.39 38.89 41.51 33.77 37.53 46.68 48.20 47.52 49.12 48.04 49.76 52.73 55.44 56.05 56.55 56.07 58.24 59.33 59.42 57.58 57.51 55.07 55.58 54.95 56.31 56.95 58.76 59.80 59.78 59.23 58.48 57.75 57.73 57.12 56.88 57.18 57.46 57.57 56.83 55.53 54.91
31.62 29.07 26.72 40.26 37.67 38.51 43.32 47.05 48.07 47.56 47.44 49.74 50.98 52.11 53.82 55.17 55.51 56.21 57.11 58.36 59.50 58.36 57.12 54.76 55.93 56.03 54.05 56.11 57.56 58.40 58.64 58.81 58.50 57.74 59.65 58.74 57.55 57.34 57.56 57.09 56.38 55.22 54.36 54.37
32.28 31.90 37.21 38.15 38.74 44.97 48.03 46.28 47.10 47.84 49.25 51.20 50.21 49.83 51.07 53.64 54.28 56.72 58.40 58.88 59.01 58.19 54.73 55.02 55.39 56.26 54.02 55.18 56.28 57.32 58.01 57.78 57.77 58.88 58.69 58.35 57.32 57.16 56.40 55.80 55.82 54.81 54.74 55.74
35.81 35.16 36.26 42.06 46.64 48.48 48.11 48.38 49.27 50.11 50.18 49.70 48.27 49.38 50.48 51.97 52.57 55.23 57.14 57.23 57.28 56.07 55.57 54.10 53.59 54.49 55.94 54.09 56.94 57.93 57.38 57.24 57.87 58.37 57.64 57.98 58.16 57.89 56.91 55.80 55.70 56.24 55.32 54.41
35.25 38.37 40.78 44.26 46.04 47.35 48.04 49.53 49.03 49.63 49.41 48.31 48.76 48.97 50.53 50.91 52.17 55.30 57.37 56.70 56.82 56.64 55.80 55.30 54.06 54.16 53.59 55.34 57.65 57.42 57.80 57.49 57.66 57.93 57.65 57.06 56.32 56.00 57.63 57.10 56.63 57.15 56.30 55.70
34.46 41.53 42.35 43.20 46.82 48.60 46.54 46.80 47.79 47.50 47.51 48.02 48.80 49.24 51.00 50.81 52.34 54.00 55.30 58.08 57.97 57.18 55.45 54.51 54.81 54.72 54.35 56.09 58.23 57.95 57.27 57.63 57.63 57.78 57.10 56.33 54.16 51.71 43.44 45.24 47.34 49.15 49.33 53.37
41.11 44.50 45.29 46.08 47.11 48.48 47.08 46.62 47.17 47.28 47.43 46.73 47.99 49.41 50.51 51.03 51.92 51.86 53.25 54.87 55.82 58.20 58.54 56.06 55.00 55.12 55.62 56.44 58.17 58.11 57.84 57.63 57.31 56.66 57.00 55.01 53.12 53.52 53.56 48.46 43.15 43.89 44.80 47.34
44.71 44.99 43.10 44.63 43.72 46.79 47.31 46.97 47.22 47.37 47.44 47.06 47.06 48.29 49.36 49.74 50.95 51.35 52.15 53.46 55.97 56.61 59.63 58.77 56.27 55.93 56.08 56.21 58.11 57.44 57.55 50.94 58.78 58.49 58.12 55.59 53.62 52.55 52.50 51.38 51.98 53.38 43.84 46.41
43.03 44.14 43.53 44.03 44.98 45.06 46.24 45.86 44.67 44.41 45.32 45.37 45.98 46.10 46.72 46.70 47.48 49.32 53.05 53.35 51.50 51.58 52.72 54.47 55.11 54.14 55.09 56.34 57.47 57.28 56.96 57.63 59.14 58.96 58.78 56.72 54.88 52.80 51.61 51.09 51.97 54.07 50.20 46.36
42.00 42.42 42.74 42.66 42.83 43.06 43.64 44.14 43.05 43.27 44.32 44.23 44.49 44.91 45.57 46.13 46.89 48.10 51.46 51.16 48.44 47.66 48.35 50.36 51.02 52.74 51.70 50.90 55.16 57.01 57.52 52.04 54.76 58.50 57.47 56.30 55.82 53.97 51.80 50.77 50.48 52.85 53.54 53.93
40.16 39.86 40.71 40.82 41.48 41.74 42.37 44.44 43.79 43.19 43.12 43.30 43.79 44.78 44.99 45.27 45.35 46.73 46.05 47.53 49.32 46.98 46.47 48.22 47.40 50.51 51.04 48.05 48.51 53.88 56.15 55.18 52.05 58.03 57.28 58.07 57.06 56.39 55.19 52.34 51.20 50.89 52.90 52.21
43.51 42.98 42.18 41.83 41.86 42.02 43.60 43.71 42.94 42.60 41.60 42.29 43.70 43.61 42.99 42.84 42.77 44.47 43.62 44.46 45.42 47.42 43.89 45.79 46.51 48.90 49.97 47.98 46.23 50.06 54.47 54.73 54.84 57.09 57.49 57.26 57.14 57.35 56.55 55.47 53.69 52.64 51.82 50.54
43.40 43.17 43.04 43.27 42.91 42.32 42.73 42.48 42.34 42.56 42.46 42.10 41.41 40.50 41.36 41.95 42.50 42.89 42.63 42.41 40.98 40.92 41.47 44.03 43.39 48.06 48.88 47.37 44.16 49.03 53.46 55.21 53.99 54.73 55.55 51.47 53.43 55.54 56.89 56.79 56.42 55.48 54.82 51.95
44.19 44.27 44.49 43.91 44.08 42.58 41.91 42.16 42.68 42.36 42.28 41.14 40.37 39.50 39.50 39.97 40.76 40.60 40.88 39.31 40.30 38.81 41.16 43.41 44.49 45.53 46.98 48.65 45.15 48.42 53.27 53.60 53.54 55.45 53.48 53.25 53.12 52.88 54.14 50.56 56.61 57.04 56.29 55.11
43.74 43.25 43.34 42.89 42.25 42.08 41.78 42.31 42.75 41.68 41.20 40.27 39.08 38.51 38.10 38.82 39.94 38.92 37.91 37.49 39.42 38.94 40.88 40.06 40.35 41.57 41.81 41.47 45.52 51.29 52.88 53.85 54.11 53.33 54.56 55.98 54.26 52.19 52.51 52.59 54.13 56.66 57.36 57.24
42.29 41.94 42.95 43.14 42.09 41.27 41.68 41.72 42.19 41.86 40.57 39.65 39.42 38.83 37.73 36.63 37.84 37.66 38.13 36.45 37.95 35.86 40.11 39.48 38.70 35.26 36.49 37.25 47.06 48.34 50.01 52.77 53.68 53.86 53.72 54.84 55.93 55.88 54.61 52.51 52.48 53.67 54.45 56.90
42.57 42.73 43.34 43.06 42.05 41.59 42.04 41.77 41.61 40.77 39.53 39.00 38.55 37.35 36.08 35.69 36.60 35.76 34.64 36.69 36.28 35.79 38.24 37.14 34.39 33.75 33.63 43.77 44.89 45.95 48.33 48.06 47.89 50.92 52.75 54.09 54.54 55.71 56.90 57.76 56.27 54.47 53.95 53.15
41.89 42.60 42.62 43.13 42.76 41.59 40.39 40.96 40.44 40.17 39.42 39.20 38.58 38.16 36.29 35.05 35.33 37.43 37.45 36.11 33.61 34.18 35.40 34.14 34.02 33.38 35.05 40.64 41.28 42.34 43.25 42.84 42.51 44.98 47.08 43.76 50.53 53.43 55.57 57.28 57.75 57.88 57.65 54.06
42.53 42.33 42.32 42.08 40.75 39.91 40.35 40.17 39.90 39.24 38.53 37.36 37.20 37.42 36.85 37.20 35.29 36.15 37.15 36.38 34.30 35.07 34.87 33.13 32.88 33.50 36.99 37.54 38.13 38.66 39.60 39.44 38.79 40.79 42.30 43.38 43.63 45.42 46.58 48.84 50.71 51.62 54.01 55.62
41.73 41.64 42.86 42.10 42.17 40.83 39.69 39.00 37.86 38.01 37.56 36.12 35.66 35.82 35.78 35.90 36.03 35.81 35.81 35.11 35.82 34.82 35.21 34.95 34.36 34.41 34.64 35.42 35.85 36.39 37.13 37.38 36.92 38.02 38.76 39.80 40.32 41.34 41.46 42.96 44.87 47.44 49.75 49.83
41.34 40.38 40.51 39.66 41.12 40.39 39.46 38.31 37.75 36.35 36.44 36.23 34.40 34.23 34.17 34.63 34.89 34.82 34.26 34.41 34.68 35.04 34.96 34.79 34.17 33.36 34.00 34.25 34.45 34.97 35.37 35.49 34.49 35.55 36.77 37.18 37.66 37.97 38.35 40.11 41.49 43.34 44.93 44.96

GFSNGP_sfc_wetblb_024.txt.gz
Wetbulb
30.36 32.11 31.96 30.60 30.58 31.42 30.01 31.12 28.14 30.74 32.04 37.67 38.16 40.36 42.73 50.88 55.29 56.67 57.51 58.72 58.62 57.86 57.60 57.58 58.28 58.81 58.87 58.69 58.91 59.48 59.36 58.92 58.37 59.24 59.14 58.49 58.35 57.90 58.11 58.72 58.41 61.71 61.00 60.00
28.51 32.03 31.89 29.86 32.05 32.64 32.51 32.62 32.58 34.03 33.74 41.12 43.43 42.74 45.34 52.51 56.16 56.46 57.64 58.63 58.31 58.63 58.58 58.29 58.54 58.54 59.04 58.60 58.96 59.88 59.42 59.31 59.92 59.93 59.18 58.82 58.68 58.01 58.24 58.34 60.51 61.59 60.18 59.02
22.83 30.51 30.47 25.08 30.47 31.48 32.90 34.87 34.05 30.63 36.53 41.05 41.62 43.89 45.51 52.21 55.95 56.58 57.59 58.05 58.42 58.80 58.94 58.74 58.64 58.98 58.05 58.45 59.72 59.86 59.78 60.22 61.40 60.17 59.27 59.39 58.39 57.99 58.05 58.41 61.09 60.00 58.49 57.95
22.18 25.91 15.30 29.48 37.81 39.47 36.31 36.39 37.20 37.59 39.57 41.85 42.05 44.79 48.80 53.49 54.34 56.50 58.01 58.47 58.88 58.74 58.75 58.69 58.46 58.04 57.40 58.27 59.72 60.34 59.86 60.44 61.21 59.88 59.32 60.30 58.82 57.85 58.08 60.35 60.44 59.31 57.43 56.69
22.45 20.17 28.07 32.22 36.93 37.10 36.11 33.51 38.47 37.84 40.02 41.96 46.95 50.12 51.49 54.87 55.65 56.53 57.79 58.42 59.09 59.26 58.63 57.60 57.57 57.44 57.12 57.87 59.50 60.75 59.36 60.69 60.53 59.76 58.87 59.40 57.73 58.09 58.40 59.42 59.47 57.97 56.69 56.35
27.95 21.81 19.55 34.57 38.93 41.27 41.61 31.30 44.77 43.33 40.96 47.39 49.37 44.81 47.04 53.31 55.96 56.27 57.86 58.92 58.86 58.99 58.19 57.11 56.67 56.28 56.77 57.25 58.62 58.87 59.50 60.12 60.58 59.69 58.47 58.31 58.00 57.88 58.50 58.45 58.13 57.81 56.40 57.34
27.61 25.23 28.83 37.96 39.23 39.96 32.34 31.86 46.12 46.69 46.85 46.83 47.46 49.39 51.13 54.30 55.50 57.15 57.16 58.66 59.13 58.69 57.76 57.40 55.34 55.96 56.04 57.00 57.94 59.56 60.43 60.05 60.04 59.12 58.48 58.63 58.19 58.76 58.57 58.46 58.18 57.60 56.88 57.06
30.43 26.23 23.51 38.22 36.76 34.90 41.13 45.53 47.44 46.28 46.14 47.94 50.15 51.20 53.16 53.87 54.88 56.50 56.66 58.34 59.50 58.25 57.00 55.79 55.53 56.36 55.71 56.66 58.56 59.40 60.26 59.73 59.46 58.60 59.46 58.57 58.37 58.67 58.74 58.47 58.01 56.75 56.19 56.95
31.17 31.33 36.71 36.23 34.80 38.86 40.12 39.45 47.79 48.16 49.61 49.17 48.59 49.14 51.80 51.61 53.43 55.82 57.27 58.49 59.35 58.39 55.80 54.99 55.99 56.37 55.57 57.05 58.05 58.82 58.78 58.72 59.16 59.74 59.10 58.71 58.45 58.20 57.81 57.90 57.74 56.16 56.23 56.46
33.18 32.65 32.81 37.98 46.19 45.22 46.09 47.96 48.46 48.97 47.92 47.45 47.53 49.95 50.28 51.78 53.41 55.32 57.17 58.56 58.70 56.32 55.90 54.11 55.29 55.93 56.98 56.20 57.89 58.48 58.04 58.26 58.61 59.45 58.28 59.06 59.15 58.92 58.32 57.70 57.22 57.06 56.46 56.19
34.94 36.65 41.02 42.71 45.71 46.49 46.92 47.88 47.83 48.46 48.17 47.91 48.84 49.51 50.55 50.88 51.95 54.87 57.03 57.10 57.04 56.51 56.42 55.66 54.89 54.95 55.14 56.55 58.06 57.78 58.20 58.19 58.55 58.52 58.75 58.36 57.93 57.77 58.90 58.77 57.35 58.16 57.79 57.34
34.22 41.93 41.44 42.30 46.82 46.78 46.21 46.34 47.29 47.14 46.53 48.25 49.39 50.09 51.02 50.62 52.32 53.56 55.21 57.26 57.14 55.92 56.21 55.24 55.09 54.28 54.64 56.94 58.06 57.96 57.62 58.04 58.17 58.55 58.66 58.30 56.59 53.95 42.37 46.10 46.61 47.88 48.06 54.32
41.13 45.02 44.93 45.88 47.00 47.12 46.01 46.62 47.13 46.59 46.35 45.91 47.76 49.28 50.46 50.31 52.12 52.24 52.32 52.36 55.98 57.27 56.03 55.73 54.99 54.74 55.04 57.49 58.39 58.18 57.95 58.08 58.10 57.25 58.62 57.38 56.48 56.55 56.16 50.75 43.43 44.07 42.81 45.34
44.17 43.88 42.07 43.39 43.54 46.14 46.46 46.61 46.93 46.72 47.00 45.98 46.48 47.36 48.26 49.65 51.59 51.36 50.93 51.73 53.62 56.63 55.92 55.33 53.84 52.39 54.82 57.75 58.48 58.48 58.34 50.27 58.72 58.93 58.80 57.60 56.86 56.41 56.90 55.79 55.35 55.88 44.06 45.87
42.44 43.30 41.98 43.79 43.78 44.31 45.68 45.58 44.14 43.97 44.63 44.84 45.57 45.57 46.47 46.73 48.39 49.33 50.43 50.88 51.35 51.17 50.25 49.83 49.98 49.87 50.49 52.05 58.20 57.66 58.03 58.06 59.24 59.24 59.09 57.00 56.88 55.60 55.23 54.85 54.98 55.89 52.74 47.32
41.53 41.37 41.64 42.88 43.29 43.29 42.91 41.79 40.80 42.10 43.39 43.33 43.26 44.04 45.34 46.85 46.02 46.61 48.46 48.88 46.62 46.94 47.38 47.97 48.45 49.83 50.11 48.92 53.56 58.03 58.03 51.35 54.21 59.48 58.54 57.97 56.80 55.92 54.55 54.17 54.21 55.72 56.30 56.30
39.48 39.27 40.47 39.64 42.19 41.96 41.37 41.66 41.18 40.78 41.85 42.14 42.45 43.57 44.24 44.93 43.68 43.43 43.47 46.32 47.37 46.23 46.73 47.61 47.55 50.18 50.41 48.37 49.13 51.91 56.39 56.57 51.73 59.26 58.93 59.01 58.41 57.07 56.24 54.78 54.14 54.45 56.70 54.15
41.96 41.12 41.16 41.36 41.12 41.10 41.43 41.41 40.84 40.62 40.38 41.10 41.81 41.63 41.48 41.76 41.16 41.01 41.66 41.91 43.60 45.03 45.72 46.11 46.11 49.76 50.91 48.29 48.62 51.38 54.43 56.08 56.22 57.84 58.56 58.92 58.84 59.18 57.88 56.68 55.79 54.97 54.68 52.74
42.22 42.04 41.90 41.95 41.42 41.44 41.49 40.84 40.50 39.94 40.11 40.12 39.91 39.30 39.88 40.28 40.01 40.20 40.61 39.83 39.53 39.69 42.09 44.46 41.87 45.68 47.74 46.03 46.50 52.10 54.49 54.67 55.37 56.72 57.75 53.25 56.98 58.13 58.20 58.20 57.37 56.60 56.17 53.36
42.88 42.93 42.88 42.15 42.32 41.45 41.04 40.86 39.97 39.42 39.79 39.50 38.75 38.20 37.89 37.98 38.75 39.41 39.78 38.07 38.37 38.74 41.57 41.36 42.71 42.60 43.76 44.21 41.07 52.69 54.64 54.24 54.54 55.09 55.36 55.42 55.88 56.80 57.33 52.32 57.97 58.27 57.59 56.61
42.50 42.71 42.15 41.50 40.81 41.23 41.32 40.92 39.39 38.59 38.73 38.73 37.71 36.52 36.95 38.16 38.24 37.07 36.35 36.08 37.11 38.41 38.78 38.19 39.82 38.47 42.87 41.54 48.35 50.54 52.37 53.43 54.46 54.56 54.38 54.68 56.35 55.17 54.53 55.21 56.42 57.62 58.53 58.36
41.03 41.64 42.04 41.55 41.01 40.48 40.93 40.36 39.75 39.06 38.45 37.69 37.17 36.64 36.67 36.59 37.43 37.01 35.52 34.17 36.72 35.18 36.82 36.95 37.01 35.29 38.30 39.90 46.35 46.67 46.50 46.96 49.13 51.54 52.47 54.41 55.47 56.81 58.12 57.82 57.06 56.66 55.88 56.48
40.42 42.09 42.33 42.13 41.23 40.53 40.77 39.80 38.90 38.57 37.48 36.95 36.09 35.50 35.04 35.56 35.86 34.71 33.34 35.19 35.99 34.75 35.30 35.10 33.28 33.41 34.83 42.11 42.55 42.56 42.63 43.04 44.33 46.00 46.84 49.11 50.33 50.93 52.03 52.88 53.91 55.21 56.26 56.07
40.99 41.69 42.24 42.14 42.09 41.23 39.23 39.21 38.51 37.93 37.61 37.26 36.55 36.30 35.34 34.77 35.64 37.08 36.84 35.74 33.86 34.24 34.34 33.77 33.79 33.24 35.49 38.63 39.39 39.47 38.58 39.19 40.24 42.26 43.06 39.79 44.29 44.81 45.75 46.73 47.68 50.77 51.77 50.86
41.82 41.65 41.33 41.01 39.85 39.45 39.48 38.75 37.66 36.82 36.23 35.61 35.87 36.13 35.87 36.23 35.36 35.58 36.34 36.29 34.12 35.27 35.36 33.16 33.24 33.72 36.30 36.76 36.84 36.77 36.42 36.24 37.10 38.61 39.50 39.83 40.07 40.70 41.40 42.73 43.66 45.03 45.98 46.45
41.54 41.49 41.91 41.86 40.58 40.33 39.42 38.45 36.69 36.27 35.38 34.39 34.47 35.00 35.18 35.37 35.56 35.80 35.75 34.99 35.15 34.15 34.31 33.93 33.68 34.87 35.09 35.04 35.39 35.47 35.24 34.88 35.50 36.09 36.26 36.95 37.29 37.51 38.44 39.33 40.53 41.48 40.97 41.46
41.41 39.80 40.44 40.22 40.16 39.52 39.05 38.22 36.80 35.29 34.88 34.36 33.45 34.06 34.37 34.43 34.01 34.30 33.97 33.60 32.62 32.54 32.74 32.87 33.09 32.51 33.47 33.77 33.92 34.33 34.13 34.02 32.99 34.06 34.53 34.77 35.06 35.74 36.34 37.35 38.06 38.39 38.32 38.93

GFSNGP_sfc_wetblb_030.txt.gz
Wetbulb
36.84 37.86 37.84 36.67 36.05 37.02 36.45 37.62 34.12 37.38 39.62 43.32 46.39 47.53 48.66 50.03 50.96 52.44 60.06 59.55 61.04 62.18 63.57 64.83 66.30 66.76 66.80 66.71 66.83 66.90 66.01 66.06 66.37 67.05 67.25 66.74 66.07 65.89 66.07 65.79 65.64 66.05 66.13 65.79
33.78 37.23 37.54 34.99 37.40 37.59 37.60 38.28 38.25 39.04 38.89 45.64 47.41 48.00 47.44 48.87 49.93 51.44 52.91 59.64 61.10 62.50 63.18 63.71 65.61 65.75 65.73 64.91 64.41 65.11 64.89 65.10 65.87 66.00 66.01 66.06 66.17 66.07 65.51 65.52 66.10 66.09 65.91 65.22
30.17 36.36 36.13 31.95 36.43 37.71 38.56 40.34 40.06 36.59 41.50 45.54 45.22 46.17 47.28 49.16 50.56 51.46 52.05 59.97 61.08 63.68 63.59 63.90 65.73 65.76 63.96 63.77 65.07 65.13 64.94 65.27 65.43 65.36 65.06 65.31 64.99 65.05 64.92 65.80 66.17 66.23 66.02 65.06
31.61 33.59 23.90 36.55 41.47 41.80 40.36 41.43 42.70 42.77 43.93 45.03 45.72 47.47 48.25 49.87 51.12 52.21 53.80 61.26 61.51 63.80 64.71 64.79 66.32 65.06 64.19 64.98 64.96 64.93 64.77 64.65 65.21 63.92 63.69 63.91 63.80 64.46 65.66 65.66 66.22 66.39 65.72 65.72
29.47 30.08 34.29 37.11 40.23 39.66 39.45 39.85 45.10 44.54 46.11 47.37 48.66 48.00 47.05 50.57 52.60 53.92 56.14 63.49 65.37 65.43 65.91 65.56 65.84 64.11 64.48 64.65 64.84 64.44 64.02 64.32 64.16 64.12 63.68 64.09 63.25 64.77 65.65 65.67 65.53 66.10 65.77 65.69
31.56 26.94 24.64 37.08 42.50 45.40 43.83 35.81 46.81 47.25 47.16 47.42 47.92 41.91 45.21 52.84 58.85 59.77 62.63 64.82 64.55 65.75 66.55 66.52 65.46 64.73 64.41 64.23 64.51 63.10 63.59 64.18 64.73 64.33 63.34 63.54 64.39 64.82 65.77 65.91 65.27 65.20 65.37 66.20
30.00 29.29 32.18 39.85 42.04 44.20 32.42 39.35 47.99 48.64 48.94 48.50 46.37 47.69 51.61 54.08 60.24 62.34 64.02 64.97 65.85 66.66 66.10 66.08 65.36 64.81 63.98 64.52 63.20 64.42 65.54 65.27 64.99 65.02 64.44 64.83 65.42 65.79 65.11 65.27 65.00 65.33 65.09 65.65
32.52 29.46 27.77 40.38 38.46 35.91 43.72 48.19 48.10 48.92 49.47 48.48 51.50 51.83 52.87 54.45 57.58 61.66 63.54 64.26 66.33 65.73 65.55 66.28 65.19 64.04 63.93 63.96 65.20 65.37 65.00 64.95 65.24 65.61 64.95 64.88 65.08 65.53 65.24 65.19 64.93 64.96 64.60 64.19
32.22 32.94 38.92 39.32 35.79 40.29 44.30 45.69 47.12 47.56 48.82 49.43 53.84 52.99 54.94 55.90 60.18 62.53 64.04 64.95 66.67 65.53 65.34 65.58 64.59 64.26 64.16 64.82 65.01 65.55 64.95 65.10 65.37 65.64 65.21 65.64 65.66 65.94 65.48 66.10 64.44 64.31 63.74 62.44
33.85 37.97 36.32 39.67 44.12 43.14 42.49 44.78 44.97 44.73 46.60 53.54 54.92 56.39 57.77 59.39 61.08 62.76 64.45 65.49 65.85 64.65 63.95 63.37 63.91 64.67 65.59 66.02 64.97 65.62 64.92 65.19 66.14 65.50 64.88 65.87 65.81 65.82 66.16 65.89 64.34 64.04 63.26 62.48
38.29 41.01 41.14 41.87 43.33 45.25 45.33 45.41 45.91 49.88 52.77 54.50 56.37 56.84 58.09 59.88 62.19 63.59 64.93 65.61 64.88 63.29 62.59 62.61 63.78 64.59 65.66 65.80 65.76 65.50 65.38 65.49 65.78 64.98 65.45 65.38 66.12 64.43 66.13 66.06 62.10 64.66 64.32 63.99
36.49 42.23 40.41 41.64 43.84 45.33 45.21 45.48 46.30 46.88 49.85 52.97 54.96 55.35 57.08 58.21 61.66 62.94 63.69 65.22 65.27 64.23 62.52 62.31 63.51 64.17 65.01 65.87 66.26 65.78 65.09 64.91 64.44 65.35 65.20 64.75 64.55 63.39 42.90 44.38 43.77 45.63 46.32 56.90
42.35 44.58 44.32 43.89 43.41 43.12 42.99 45.43 46.16 46.34 47.56 51.75 53.85 55.47 55.81 56.71 58.51 56.52 61.54 61.09 62.11 64.63 64.93 63.42 63.04 63.56 64.89 65.43 65.82 65.72 64.78 65.19 64.74 62.84 64.90 63.79 64.68 64.17 62.87 55.68 42.48 41.61 43.40 42.73
46.37 45.27 41.93 43.31 40.59 43.69 43.90 45.34 46.42 46.23 47.03 49.37 51.37 53.28 53.71 54.23 55.33 56.86 56.25 55.78 58.49 61.11 63.17 65.20 64.67 63.65 64.71 65.21 65.32 65.66 65.87 53.63 64.45 64.39 65.02 63.96 63.68 64.03 63.79 63.69 62.60 62.36 45.62 45.57
44.92 46.39 44.57 45.28 44.34 43.63 45.71 45.61 44.55 43.83 44.97 45.63 47.48 49.21 51.10 50.91 52.08 53.45 55.11 54.97 55.48 56.93 59.47 60.07 60.69 60.42 63.67 65.03 65.02 65.27 65.58 64.79 65.16 64.93 65.21 63.20 63.59 64.41 63.65 63.86 63.86 63.74 60.93 51.27
45.68 45.17 44.71 44.10 42.51 44.02 45.69 44.64 45.94 42.67 43.20 43.99 44.92 46.21 47.61 48.33 48.79 50.34 51.08 52.87 53.00 52.70 55.10 57.34 58.39 59.33 60.86 64.67 65.33 65.35 65.34 54.15 57.62 65.36 65.51 65.30 64.46 62.52 63.62 63.67 63.80 64.47 64.04 62.53
44.86 42.02 43.34 43.08 41.40 42.48 44.02 45.24 45.40 42.76 43.03 43.08 43.37 44.14 45.77 45.59 46.06 46.96 48.00 48.76 48.38 48.37 50.34 52.51 55.08 58.73 59.23 61.93 64.86 64.16 64.24 64.88 53.84 65.63 65.10 65.16 64.79 63.99 62.69 62.49 62.83 63.15 64.69 62.44
47.73 46.23 45.13 43.47 42.39 43.00 42.98 44.58 43.61 43.11 41.99 45.01 43.40 43.93 43.50 42.78 43.08 44.40 45.21 47.56 45.55 46.96 46.40 48.30 50.17 56.68 58.21 58.22 61.69 65.55 64.77 64.38 64.26 63.76 64.43 64.88 65.22 65.53 65.07 63.69 62.80 62.39 63.61 59.95
47.99 46.39 45.26 43.48 42.89 43.42 43.98 43.60 44.34 45.17 43.28 43.50 42.36 42.34 43.10 43.47 42.99 43.14 41.63 41.34 42.35 40.69 42.08 45.39 44.43 52.27 56.95 53.09 53.75 64.41 65.28 64.82 64.41 64.17 64.63 58.18 64.67 65.40 65.26 65.27 64.63 64.12 64.19 63.06
48.07 47.28 45.98 44.91 44.28 43.92 44.13 44.29 43.26 43.94 44.89 43.50 43.75 42.51 41.13 41.98 44.18 43.26 40.95 37.12 37.59 38.81 41.49 43.10 48.02 51.58 52.63 53.35 49.64 62.75 63.42 63.29 63.68 65.02 65.69 64.87 65.24 65.56 66.05 56.11 64.59 65.59 65.38 64.93
48.01 47.79 45.72 44.79 43.74 43.78 44.58 44.73 43.04 42.05 43.78 44.45 40.87 40.48 40.23 39.85 40.13 40.65 39.73 36.47 36.65 38.76 40.77 41.05 44.46 48.77 49.63 49.49 53.37 56.13 54.89 54.72 54.56 55.76 56.07 57.38 60.54 61.46 62.32 63.41 63.16 63.93 64.59 66.08
49.07 48.30 47.12 45.37 44.29 44.11 44.90 45.26 44.12 43.50 42.65 43.21 42.92 42.15 40.90 40.72 40.42 37.67 37.28 36.00 36.38 35.42 40.42 42.16 41.78 38.55 46.18 43.07 50.53 49.98 49.44 48.00 48.41 48.54 49.40 50.24 49.47 49.35 49.88 50.54 49.95 50.75 51.77 53.81
50.03 49.01 48.17 46.30 45.05 44.56 45.17 45.03 44.48 43.12 42.25 41.76 40.84 39.61 38.98 38.16 38.84 39.45 36.22 36.66 36.46 35.32 38.53 38.38 34.55 36.16 39.35 49.37 47.26 46.26 45.01 44.27 43.34 43.28 44.12 44.82 45.21 45.51 44.64 44.30 45.04 45.41 45.59 45.60
50.21 49.89 49.08 48.04 47.06 45.61 43.94 44.53 44.75 43.95 42.57 42.34 42.58 43.56 42.28 39.10 38.09 38.19 38.04 35.84 34.18 35.69 36.35 36.21 35.78 33.64 37.81 42.99 42.43 41.39 41.51 41.00 40.95 41.36 41.35 39.32 42.44 42.40 41.77 41.68 41.43 41.81 42.06 41.69
50.93 50.74 50.03 48.82 47.48 46.02 45.56 45.33 45.15 44.80 44.16 43.59 42.94 43.05 43.36 43.48 41.27 39.63 38.78 38.19 35.10 39.26 40.51 33.98 33.97 34.98 40.16 39.49 39.70 39.65 38.45 38.40 39.28 39.78 40.42 40.15 40.23 40.10 40.68 40.66 40.22 40.44 40.73 40.87
51.27 50.56 50.75 50.53 49.50 48.18 47.28 47.25 45.02 45.29 45.07 43.83 43.61 43.41 43.53 43.48 42.65 42.43 42.07 41.02 43.21 39.68 42.12 43.40 44.28 43.56 42.67 41.60 40.42 40.20 41.26 40.97 40.84 40.42 40.18 40.98 40.36 40.35 40.59 40.87 41.46 41.39 41.08 41.42
52.13 47.21 51.08 50.43 50.02 49.16 48.87 47.28 45.84 44.67 44.70 44.92 43.00 44.11 43.87 43.07 41.90 42.09 39.73 43.37 43.37 42.78 42.66 42.85 42.57 41.02 42.96 42.87 42.38 42.58 41.87 41.02 39.09 43.22 43.21 43.44 43.48 43.23 42.97 42.70 42.30 41.09 42.20 43.08

GFSNGP_sfc_wetblb_033.txt.gz
Wetbulb
37.01 39.06 39.00 37.75 38.05 37.61 36.51 38.00 33.51 36.24 36.58 38.81 42.84 47.69 50.27 50.98 51.50 52.80 59.67 60.42 61.39 63.20 65.19 66.43 67.13 67.62 68.19 68.01 68.26 68.39 67.69 67.71 67.94 68.42 68.42 67.75 67.06 66.87 66.59 66.29 66.11 65.99 65.87 66.16
33.72 38.36 38.98 36.94 38.56 38.99 38.82 39.18 39.08 38.77 38.21 44.17 47.26 49.52 49.36 49.87 50.54 51.77 55.34 59.88 61.38 63.07 64.53 65.06 66.34 66.82 66.68 66.39 66.64 67.00 66.14 65.68 66.09 66.05 65.94 66.12 66.37 66.55 66.20 65.56 66.57 66.33 65.53 65.56
30.99 36.83 36.96 33.45 37.88 38.58 39.63 41.08 40.38 36.76 41.77 45.78 45.43 47.22 48.89 49.92 50.58 51.22 53.67 60.22 60.89 62.52 63.75 65.09 65.80 66.45 65.30 64.75 65.23 65.21 65.21 65.35 65.53 65.81 64.37 64.89 65.04 65.19 65.13 66.53 66.87 66.43 66.00 65.73
32.42 35.11 26.10 38.68 43.11 41.98 40.47 41.92 43.32 43.11 43.86 45.59 46.54 48.23 49.69 51.05 50.93 51.47 53.88 57.50 61.76 64.21 64.05 65.91 65.59 65.41 64.92 65.12 64.98 64.80 65.00 64.65 64.72 63.70 63.64 64.32 64.69 64.58 66.46 66.52 66.84 66.28 66.12 66.53
30.04 31.14 35.64 38.50 41.04 40.76 40.04 40.61 45.05 44.23 45.50 46.80 47.80 49.13 49.64 51.99 52.21 52.82 54.01 56.74 63.94 65.48 66.11 66.08 65.46 64.84 64.84 64.56 64.67 64.63 64.18 63.54 63.40 63.77 63.39 63.10 63.49 64.82 65.90 66.02 66.41 66.33 66.38 66.34
32.94 28.56 25.51 36.83 42.12 46.64 46.48 37.27 46.59 48.58 47.01 47.99 49.06 44.61 47.80 51.60 54.96 58.60 60.56 60.43 65.06 65.05 65.12 65.37 65.10 65.36 64.61 64.18 64.46 63.84 63.46 64.24 64.86 64.72 63.54 63.81 64.82 64.66 66.13 65.85 65.64 65.18 65.87 66.23
30.80 30.08 33.68 41.25 42.65 45.17 33.74 37.19 48.45 49.71 49.81 50.89 48.55 50.36 53.30 55.31 56.00 57.20 62.38 65.35 66.15 66.20 63.75 65.75 64.96 65.21 63.93 64.83 63.28 64.14 64.39 65.19 63.76 64.23 64.43 65.60 66.22 66.03 65.96 65.22 65.70 65.89 65.45 65.56
33.79 30.04 28.28 41.86 40.09 35.53 43.80 46.03 45.55 48.86 49.52 49.72 51.83 54.19 53.65 54.32 55.40 58.42 61.26 64.96 63.97 63.63 63.78 65.15 65.29 64.72 64.11 64.17 63.98 65.96 65.40 64.02 63.99 64.26 63.09 64.58 65.83 65.51 65.42 65.56 65.50 65.43 65.17 63.86
32.55 33.46 41.81 42.12 39.46 40.61 40.09 39.83 44.72 48.00 50.68 50.87 51.92 53.20 56.08 56.17 56.87 56.46 57.35 63.00 64.15 63.60 65.01 64.91 65.11 64.76 64.71 64.61 65.10 64.78 65.07 64.42 64.78 63.94 64.59 65.47 65.84 65.66 65.38 65.43 64.26 64.38 64.31 62.98
34.37 39.43 38.44 41.49 42.82 44.05 46.33 47.24 47.33 49.59 49.92 51.03 53.06 54.45 57.57 57.11 56.88 56.84 62.73 62.60 64.69 65.07 64.50 63.51 63.73 65.24 65.65 64.43 64.93 64.85 64.05 63.74 64.93 64.12 64.22 66.02 65.67 66.35 66.66 66.62 65.68 65.02 63.55 62.96
38.44 39.28 41.77 41.84 41.39 42.18 45.19 46.60 45.68 47.59 49.43 52.75 55.77 57.61 59.13 58.34 60.61 61.90 64.21 64.00 64.74 64.48 63.54 62.74 63.60 65.50 64.58 64.75 65.11 63.51 64.86 63.77 65.41 63.87 65.00 66.05 64.59 63.37 66.33 63.00 61.08 65.31 64.56 64.06
35.28 41.26 40.80 40.08 42.13 43.03 43.16 45.15 46.55 47.33 48.29 53.94 57.20 56.90 57.35 57.86 61.47 62.79 64.26 64.01 64.06 63.67 62.76 62.74 64.11 65.63 65.60 63.99 65.47 64.13 63.13 64.67 63.55 64.11 64.46 64.15 64.41 62.86 43.19 44.25 42.33 41.98 43.25 56.46
41.22 43.86 43.35 42.27 42.89 43.96 43.54 45.82 46.26 47.21 48.05 50.96 54.35 54.86 56.30 57.85 59.77 59.46 61.39 63.43 61.21 62.13 62.42 63.45 63.99 64.73 65.06 65.39 65.53 65.21 65.48 65.30 64.22 62.11 63.82 62.93 64.22 63.51 61.86 55.51 43.05 41.24 41.98 43.97
46.32 44.62 41.51 42.82 41.39 44.50 46.04 46.53 46.07 46.51 47.35 49.65 52.84 53.54 55.58 56.09 56.94 58.03 59.52 61.38 65.10 62.65 62.55 63.42 63.83 63.53 64.88 65.37 65.79 64.90 66.35 53.78 64.27 63.73 63.09 64.37 63.68 63.51 63.41 62.40 61.82 61.03 45.65 47.27
45.18 45.60 43.70 44.92 45.49 45.33 45.31 46.52 43.39 44.42 44.67 46.49 50.74 49.56 51.56 53.16 53.74 55.08 58.31 60.38 60.53 60.35 61.53 62.40 63.35 63.44 64.31 65.02 65.14 64.83 64.54 64.05 64.40 64.78 64.19 62.37 63.11 62.88 63.51 63.97 62.54 61.63 59.00 50.60
45.27 44.63 44.29 43.86 45.31 44.33 43.91 43.99 42.37 42.94 43.32 43.99 46.05 47.74 48.94 50.44 50.98 51.25 52.11 55.89 54.76 54.63 57.33 60.14 61.78 62.89 64.27 64.75 65.19 65.09 64.30 54.41 56.98 65.10 64.12 63.57 64.12 61.58 62.21 63.06 63.40 62.90 62.91 61.40
43.07 42.06 42.21 42.11 44.00 44.28 43.66 43.10 42.88 43.01 42.79 43.88 43.98 44.90 47.32 47.54 49.38 49.43 49.10 50.25 50.39 50.81 52.67 54.06 57.64 60.45 63.06 65.44 66.14 64.32 64.57 64.18 53.71 64.40 63.44 63.86 62.86 62.83 63.63 63.55 62.76 62.09 63.21 61.57
46.72 46.12 44.05 44.02 44.39 45.18 43.72 43.50 42.82 42.47 42.36 43.22 43.90 43.77 43.56 44.33 43.24 43.67 45.49 48.20 47.61 47.61 49.04 51.09 54.61 59.74 61.59 60.65 61.28 64.44 64.19 63.10 63.47 64.00 63.86 63.95 63.78 63.69 62.73 62.19 62.61 64.12 63.51 59.59
48.00 45.01 43.77 44.11 46.12 45.80 45.43 45.25 43.10 43.49 44.23 43.15 42.48 42.07 43.46 42.42 41.04 40.47 40.60 40.17 41.17 43.05 44.77 50.58 48.72 55.34 61.01 54.75 55.29 64.31 64.65 63.43 62.91 63.44 64.52 59.35 64.47 64.26 63.83 63.31 62.83 63.03 64.36 63.07
47.41 46.23 44.24 43.82 45.38 45.79 44.94 45.35 46.06 43.52 43.99 43.40 42.71 41.30 40.30 41.53 42.70 40.00 38.97 38.46 38.33 41.01 45.01 47.53 54.63 55.69 57.95 57.11 51.56 61.28 62.34 63.68 63.79 64.27 62.86 63.86 63.69 64.34 63.93 57.91 60.73 61.86 64.47 63.97
47.44 45.50 44.83 44.70 44.48 45.14 45.60 45.34 45.60 45.49 44.65 45.18 43.00 42.36 41.31 41.02 40.38 40.02 38.76 36.18 38.09 40.75 42.82 43.06 47.49 53.30 54.53 54.43 53.94 54.06 52.61 53.06 55.18 57.50 59.21 58.86 59.69 58.84 58.28 58.86 58.60 58.11 57.36 59.79
48.48 46.82 45.94 45.31 44.93 45.07 45.79 45.64 45.27 45.22 44.99 43.97 42.66 42.28 43.20 42.52 40.80 37.67 36.96 37.01 38.83 36.45 42.08 43.77 44.50 37.39 48.64 45.89 49.27 47.02 46.94 47.70 47.64 47.43 47.78 48.77 49.46 49.55 49.28 49.48 49.16 49.81 50.77 50.80
49.59 48.70 47.82 46.09 45.55 46.15 46.47 45.91 44.65 44.79 45.22 44.94 43.18 41.27 39.67 38.86 39.19 36.84 34.75 37.49 38.75 37.16 40.83 41.86 36.12 35.46 37.57 49.34 46.22 43.84 43.55 43.08 43.25 43.41 43.19 43.38 43.73 43.33 42.91 43.22 43.64 44.63 45.26 44.87
50.48 50.05 48.96 48.76 47.95 46.53 45.17 46.20 46.12 45.32 44.59 44.83 45.98 45.82 43.60 40.11 38.43 39.54 39.30 37.33 35.46 36.76 38.25 37.83 37.05 35.45 38.87 44.96 43.50 42.54 41.88 41.23 41.13 41.25 41.24 38.89 40.94 41.21 41.51 41.15 40.60 41.17 41.45 40.77
51.15 51.00 50.44 49.56 48.02 46.56 46.90 47.28 46.88 46.84 46.07 44.74 44.95 45.22 45.13 43.83 41.07 40.24 41.77 41.36 36.08 39.56 40.92 34.54 34.61 35.98 43.07 41.83 41.06 40.81 40.81 41.54 41.38 41.54 41.04 40.69 40.90 41.02 40.80 40.98 40.99 41.27 41.41 41.53
51.47 50.70 50.87 51.08 49.96 49.44 48.48 47.84 46.38 46.88 46.63 45.37 45.03 45.36 45.46 45.76 44.61 43.80 43.54 42.02 44.07 40.97 42.87 43.81 43.80 42.25 41.78 42.56 43.13 42.79 42.05 41.68 41.80 40.85 40.73 41.38 41.56 41.96 42.43 42.49 42.60 42.20 42.80 43.19
51.56 46.58 50.75 50.45 50.86 50.87 50.10 47.80 46.91 46.37 46.23 46.28 45.47 45.97 45.32 45.38 44.57 44.81 41.48 44.37 43.81 43.62 43.75 44.34 44.77 42.91 45.09 44.40 43.30 43.09 43.37 43.34 41.20 44.71 45.09 44.75 45.06 44.35 43.98 43.91 42.79 42.46 42.69 43.06